[Date Prev][Date Next][Thread Prev][Thread Next] - [Date Index][Thread Index][Author Index]
2 Line ISS Keps 12-7
- Subject: [sarex] 2 Line ISS Keps 12-7
- From: "Dave Larsen PhD" <doc@xxxxxxxxxxx>
- Date: Tue, 6 Dec 2005 20:06:18 -0800
ISS
1 25544U 98067A 05341.05592593 .00015902 00000-0 11910-3 0 8947
2 25544 051.6454 094.9314 0009362 012.4591 345.1547 15.72800533402884
----
Via the sarex mailing list at AMSAT.ORG courtesy of AMSAT-NA.
To unsubscribe, send "unsubscribe sarex" to Majordomo@amsat.org
AMSAT Home